Volver al catálogo

ALISIO-1

ActivoCienciaSSO
NORAD 58562·PAYLOAD·🇪🇸 Spain

Lanzado Dec 1, 2023 desde Vandenberg Space Force Base

Loading…

Próximos Pases (próximas 24 horas)

TLE

ActualizadoSource: Space-Track

Época: Sep 14, 2026, 13:05 UTC

1 58562U 23185M   26257.54546312  .00002783  00000-0  14184-3 0  9998
2 58562  97.5298 330.4105 0006476  20.6662 339.4832 15.17588319152108

Sigue ALISIO-1 en tiempo real con AllMySat

Download on the App Store